Weather History for Watford City, ND

Change the Weather History Date:

Friday, November 16, 2012

  Actual Average (KISN) Record (KISN)
Temperature  
Mean Temperature 32 °F 27 °F  
Max Temperature 39 °F 37 °F 65 °F (2001)
Min Temperature 26 °F 16 °F -16 °F (1959)
Degree Days  
Heating Degree Days 32 38  
Month to date heating degree days 542  
Since 1 July heating degree days 1569  
Cooling Degree Days 0 0  
Month to date cooling degree days 0  
Year to date cooling degree days 456  
Moisture  
Dew Point 26 °F    
Average Humidity 80    
Maximum Humidity 100    
Minimum Humidity 65    
Precipitation  
Precipitation 0.00 in 0.02 in 0.56 in (1958)
Month to date precipitation 0.39  
Year to date precipitation 13.49  
Sea Level Pressure  
Sea Level Pressure 29.98 in    
Wind  
Wind Speed 3 mph (SSE)    
Max Wind Speed 10 mph    
Max Gust Speed -    
Visibility 10 miles    
Events      
T = Trace of Precipitation, MM = Missing Value Source: NWS Daily Summary

Daily Weather History Graph

Daily Weather History Graph

Search for Another Location

Airport:

Trip Planner

Search our weather history database for the weather conditions in past years. The results will help you decide how hot, cold, wet, or windy it might be!

Date:

Astronomy

Nov. 16, 2012 Rise Set
Actual Time 8:01 AM CST 5:14 PM CST
Civil Twilight 7:27 AM CST 5:48 PM CST
Nautical Twilight 6:49 AM CST 6:25 PM CST
Astronomical Twilight 6:12 AM CST 7:02 PM CST
Moon 11:01 AM CST (11/16) 8:13 PM CST (11/16)
Length of Visible Light 10h 20m
Length of Day
9h 13m
Waxing Crescent, 12% of the Moon is Illuminated
Nov 16
Waxing Crescent
Nov 20
First Quarter
Nov 28
Full
Dec 6
Last Quarter
Dec 13
New

Hourly Weather History & Observations

Time (CST) Temp. Windchill Dew Point Humidity Pressure Visibility Wind Dir Wind Speed Gust Speed Precip Events Conditions
12:15 AM 32.0 °F - 24.8 °F 75% 30.14 in 10.0 mi Calm Calm - N/A   Clear
12:35 AM 32.0 °F - 24.8 °F 75% 30.13 in 10.0 mi Calm Calm - N/A   Clear
12:55 AM 28.4 °F - 24.8 °F 86% 30.12 in 10.0 mi Calm Calm - N/A   Clear
1:15 AM 30.2 °F 25.4 °F 24.8 °F 80% 30.12 in 10.0 mi North 4.6 mph - N/A   Clear
1:35 AM 30.2 °F 25.4 °F 24.8 °F 80% 30.11 in 10.0 mi WNW 4.6 mph - N/A   Clear
1:55 AM 32.0 °F - 24.8 °F 75% 30.10 in 10.0 mi Calm Calm - N/A   Clear
2:15 AM 32.0 °F - 24.8 °F 75% 30.09 in 10.0 mi Calm Calm - N/A   Clear
2:35 AM 32.0 °F - 24.8 °F 75% 30.08 in 10.0 mi Calm Calm - N/A   Clear
2:55 AM 32.0 °F 24.8 °F 24.8 °F 75% 30.08 in 10.0 mi SSE 8.1 mph - N/A   Clear
3:15 AM 32.0 °F 24.8 °F 24.8 °F 75% 30.07 in 10.0 mi South 8.1 mph - N/A   Clear
3:35 AM 32.0 °F 27.5 °F 24.8 °F 75% 30.06 in 10.0 mi SSE 4.6 mph - N/A   Clear
3:55 AM 30.2 °F 22.6 °F 24.8 °F 80% 30.05 in 10.0 mi SE 8.1 mph - N/A   Clear
4:15 AM 32.0 °F 28.7 °F 24.8 °F 75% 30.04 in 10.0 mi SSE 3.5 mph - N/A   Clear
4:35 AM 30.2 °F 25.4 °F 24.8 °F 80% 30.03 in 10.0 mi South 4.6 mph - N/A   Clear
4:55 AM 30.2 °F - 24.8 °F 80% 30.03 in 10.0 mi Calm Calm - N/A   Clear
5:15 AM 30.2 °F 26.7 °F 24.8 °F 80% 30.02 in 10.0 mi SW 3.5 mph - N/A   Clear
5:35 AM 30.2 °F - 24.8 °F 80% 30.02 in 10.0 mi Calm Calm - N/A   Clear
5:55 AM 30.2 °F 23.4 °F 24.8 °F 80% 30.01 in 10.0 mi SE 6.9 mph - N/A   Clear
6:15 AM 28.4 °F 20.4 °F 24.8 °F 86% 30.00 in 10.0 mi SSE 8.1 mph - N/A   Clear
6:35 AM 30.2 °F 22.6 °F 24.8 °F 80% 30.00 in 10.0 mi SSE 8.1 mph - N/A   Clear
6:55 AM 30.2 °F 21.9 °F 24.8 °F 80% 29.99 in 10.0 mi SSE 9.2 mph - N/A   Clear
7:15 AM 30.2 °F 21.9 °F 24.8 °F 80% 29.99 in 10.0 mi SSE 9.2 mph - N/A   Clear
7:35 AM 30.2 °F 23.4 °F 24.8 °F 80% 29.99 in 10.0 mi SSE 6.9 mph - N/A   Clear
7:55 AM 30.2 °F 23.4 °F 24.8 °F 80% 29.99 in 10.0 mi SSE 6.9 mph - N/A   Clear
8:15 AM 30.2 °F 24.3 °F 24.8 °F 80% 29.99 in 10.0 mi SE 5.8 mph - N/A   Clear
8:35 AM 30.2 °F 25.4 °F 24.8 °F 80% 29.99 in 10.0 mi SSE 4.6 mph - N/A   Clear
8:55 AM 32.0 °F 25.6 °F 24.8 °F 75% 29.98 in 10.0 mi SSE 6.9 mph - N/A   Clear
9:15 AM 32.0 °F 24.8 °F 24.8 °F 75% 29.97 in 10.0 mi SE 8.1 mph - N/A   Clear
9:35 AM 32.0 °F 25.6 °F 24.8 °F 75% 29.97 in 10.0 mi SSE 6.9 mph - N/A   Clear
9:55 AM 32.0 °F 26.4 °F 24.8 °F 75% 29.97 in 10.0 mi South 5.8 mph - N/A   Clear
10:15 AM 32.0 °F 23.6 °F 26.6 °F 80% 29.96 in 10.0 mi South 10.4 mph - N/A   Clear
10:35 AM 32.0 °F 24.8 °F 26.6 °F 80% 29.96 in 10.0 mi SSE 8.1 mph - N/A   Clear
10:55 AM 33.8 °F 26.4 °F 26.6 °F 75% 29.95 in 10.0 mi South 9.2 mph - N/A   Clear
11:15 AM 35.6 °F 30.7 °F 26.6 °F 70% 29.96 in 10.0 mi South 5.8 mph - N/A   Clear
11:35 AM 35.6 °F - 28.4 °F 75% 29.96 in 10.0 mi Calm Calm - N/A   Partly Cloudy
11:55 AM 37.4 °F - 28.4 °F 70% 29.95 in 10.0 mi Calm Calm - N/A   Clear
12:15 PM 39.2 °F - 28.4 °F 65% 29.95 in 10.0 mi Calm Calm - N/A   Clear
12:35 PM 37.4 °F - 28.4 °F 70% 29.95 in 10.0 mi Calm Calm - N/A   Clear
12:55 PM 39.2 °F - 28.4 °F 65% 29.94 in 10.0 mi Calm Calm - N/A   Clear
1:15 PM 37.4 °F - 28.4 °F 70% 29.93 in 10.0 mi Calm Calm - N/A   Clear
1:35 PM 39.2 °F - 28.4 °F 65% 29.93 in 10.0 mi Calm Calm - N/A   Clear
1:55 PM 39.2 °F - 28.4 °F 65% 29.93 in 10.0 mi Calm Calm - N/A   Clear
2:15 PM 39.2 °F - 28.4 °F 65% 29.93 in 10.0 mi Calm Calm - N/A   Clear
2:35 PM 39.2 °F - 28.4 °F 65% 29.93 in 10.0 mi Calm Calm - N/A   Clear
2:55 PM 37.4 °F - 28.4 °F 70% 29.92 in 10.0 mi Calm Calm - N/A   Clear
3:15 PM 37.4 °F - 28.4 °F 70% 29.92 in 10.0 mi Calm Calm - N/A   Clear
3:35 PM 37.4 °F - 30.2 °F 75% 29.92 in 10.0 mi Calm Calm - N/A   Clear
3:55 PM 37.4 °F - 30.2 °F 75% 29.93 in 10.0 mi Calm Calm - N/A   Clear
4:15 PM 35.6 °F - 28.4 °F 75% 29.93 in 10.0 mi Calm Calm - N/A   Clear
4:35 PM 33.8 °F - 28.4 °F 81% 29.92 in 9.0 mi Calm Calm - N/A   Clear
4:55 PM 32.0 °F 28.7 °F 28.4 °F 87% 29.93 in 10.0 mi South 3.5 mph - N/A   Clear
5:15 PM 32.0 °F - 26.6 °F 80% 29.93 in 10.0 mi Calm Calm - N/A   Clear
5:35 PM 32.0 °F - 26.6 °F 80% 29.94 in 10.0 mi Calm Calm - N/A   Clear
6:15 PM 28.4 °F - 24.8 °F 86% 29.94 in 10.0 mi Calm Calm - N/A   Clear
6:35 PM 28.4 °F 24.6 °F 26.6 °F 93% 29.95 in 10.0 mi SSW 3.5 mph - N/A   Clear
6:55 PM 28.4 °F - 26.6 °F 93% 29.95 in 10.0 mi Calm Calm - N/A   Clear
7:15 PM 26.6 °F - 24.8 °F 93% 29.95 in 10.0 mi Calm Calm - N/A   Clear
7:55 PM 28.4 °F - 26.6 °F 93% 29.95 in 10.0 mi Calm Calm - N/A   Clear
8:15 PM 26.6 °F - 26.6 °F 100% 29.94 in 10.0 mi Calm Calm - N/A   Unknown
8:35 PM 26.6 °F - 24.8 °F 93% 29.95 in 10.0 mi Calm Calm - N/A   Clear
8:55 PM 26.6 °F - 24.8 °F 93% 29.95 in 10.0 mi Calm Calm - N/A   Clear
9:15 PM 28.4 °F - 26.6 °F 93% 29.95 in 10.0 mi Calm Calm - N/A   Clear
9:35 PM 28.4 °F - 26.6 °F 93% 29.95 in 10.0 mi Calm Calm - N/A   Clear
9:55 PM 26.6 °F - 26.6 °F 100% 29.95 in 10.0 mi Calm Calm - N/A   Clear
10:15 PM 28.4 °F - 26.6 °F 93% 29.95 in 10.0 mi Calm Calm - N/A   Scattered Clouds
10:35 PM 26.6 °F - 24.8 °F 93% 29.95 in 10.0 mi Calm Calm - N/A   Partly Cloudy
10:55 PM 28.4 °F - 26.6 °F 93% 29.95 in 10.0 mi Calm Calm - N/A   Clear
11:15 PM 28.4 °F - 26.6 °F 93% 29.96 in 10.0 mi Calm Calm - N/A   Clear
11:35 PM 26.6 °F - 24.8 °F 93% 29.96 in 10.0 mi Calm Calm - N/A   Clear
11:55 PM 26.6 °F - 24.8 °F 93% 29.96 in 10.0 mi Calm Calm - N/A   Clear